SPACEWAY 2

导读 | 豆包AI

SPACEWAY 2是美国于2005年11月16日发射的高通量通信卫星,隶属于休斯太空通信公司的SPACEWAY系列。该卫星定点于地球静止轨道,主要为北美地区提供高速双向卫星通信、宽带互联网接入及多媒体传输服务,具备高频谱利用率和大容量传输能力,推动了早期卫星宽带通信的普及应用,是美国高通量通信卫星发展历程中的重要节点。

Basic Information
目录编号:
28903
目录名称:
SPACEWAY 2
国际标识:
2005-046B
轨道中心:
EARTH
卫星名称:
SPACEWAY 2
卫星全名:
--
卫星状态:
在轨 (已飞行7471 天)
发射日期:
2005-11-16 UTC
国别 :
美国 (US)
星等 :
--
Orbit Information
数据来源 国际轨道数据 AOE轨道数据
星历时间 2026-05-01T04:44:26+0800
12小时前
查看轨道信息
2026-05-01T04:00:00+0800
12小时前
查看轨道信息
半长轴 42507.183km 42507.154km
偏心率 0.0002838 0.0002825
轨道倾角 5.355° 5.354°
近地点辐角 36.144° 36.139°
升交点赤经 72.574° 72.577°
平近点角 166.118° 155.115°
近地点 36116.982km 36117.008km
远地点 36141.11km 36141.026km
周期 1453.628分钟 1453.626分钟
每日圈数 0.990625 0.990626
Detailed Information
使用方式:
暂无
2D Orbit Map
3D Orbit Map
Orbit Altitude Analysis Chart
Orbit Inclination Analysis Chart
Orbit Comprehensive Analysis Chart
View Comprehensive Chart